Weather History for Mosinee, WI

Change the Weather History Date:

Wednesday, November 7, 2012

  Actual Average Record
Temperature  
Mean Temperature 34 °F -  
Max Temperature 37 °F 42 °F 55 °F (2002)
Min Temperature 32 °F 26 °F 10 °F (2003)
Degree Days  
Heating Degree Days 30    
Moisture  
Dew Point 33 °F    
Average Humidity 99    
Maximum Humidity 100    
Minimum Humidity 93    
Precipitation  
Precipitation 0.00 in - - ()
Sea Level Pressure  
Sea Level Pressure 30.04 in    
Wind  
Wind Speed 2 mph (SW)    
Max Wind Speed 6 mph    
Max Gust Speed -    
Visibility 4 miles    
Events Fog    
Averages and records for this station are not official NWS values.
T = Trace of Precipitation, MM = Missing Value Source: NWS Daily Summary

Daily Weather History Graph

Daily Weather History Graph

Search for Another Location

Airport:

Trip Planner

Search our weather history database for the weather conditions in past years. The results will help you decide how hot, cold, wet, or windy it might be!

Date:

Astronomy

Nov. 07, 2012 Rise Set
Actual Time 6:45 AM CST 4:38 PM CST
Civil Twilight 6:14 AM CST 5:09 PM CST
Nautical Twilight 5:39 AM CST 5:44 PM CST
Astronomical Twilight 5:05 AM CST 6:18 PM CST
Moon No Moon Rise 1:03 PM CST (11/7)
Length of Visible Light 10h 55m
Length of Day
9h 53m
Last Quarter, 43% of the Moon is Illuminated
Nov 7
Last Quarter
Nov 13
New
Nov 20
First Quarter
Nov 28
Full
Dec 6
Last Quarter

Hourly Weather History & Observations

Time (CST) Temp. Windchill Dew Point Humidity Pressure Visibility Wind Dir Wind Speed Gust Speed Precip Events Conditions
12:15 AM 32.0 °F - 32.0 °F 100% 29.91 in 0.2 mi Calm Calm - N/A Fog Fog
12:35 AM 32.0 °F - 32.0 °F 100% 29.91 in 0.2 mi Calm Calm - N/A Fog Fog
12:55 AM 32.0 °F 28.7 °F 32.0 °F 100% 29.92 in 0.2 mi North 3.5 mph - N/A Fog Fog
1:15 AM 32.0 °F 28.7 °F 32.0 °F 100% 29.92 in 1.2 mi NNE 3.5 mph - N/A   Overcast
1:35 AM 32.0 °F 28.7 °F 32.0 °F 100% 29.93 in 2.5 mi North 3.5 mph - N/A   Overcast
1:55 AM 32.0 °F 27.5 °F 32.0 °F 100% 29.95 in 2.5 mi North 4.6 mph - N/A   Overcast
2:15 AM 32.0 °F 27.5 °F 32.0 °F 100% 29.96 in 3.0 mi North 4.6 mph - N/A   Overcast
2:35 AM 32.0 °F 27.5 °F 32.0 °F 100% 29.97 in 3.0 mi NNE 4.6 mph - N/A   Overcast
2:55 AM 32.0 °F 28.7 °F 32.0 °F 100% 29.97 in 4.0 mi NNE 3.5 mph - N/A   Overcast
3:15 AM 32.0 °F - 32.0 °F 100% 29.97 in 4.0 mi Calm Calm - N/A   Overcast
3:35 AM 32.0 °F 28.7 °F 32.0 °F 100% 29.97 in 3.0 mi North 3.5 mph - N/A   Overcast
3:55 AM 32.0 °F 28.7 °F 32.0 °F 100% 29.98 in 5.0 mi North 3.5 mph - N/A   Overcast
4:15 AM 32.0 °F 28.7 °F 32.0 °F 100% 29.98 in 3.0 mi North 3.5 mph - N/A   Overcast
4:35 AM 32.0 °F - 32.0 °F 100% 29.99 in 4.0 mi Calm Calm - N/A   Overcast
6:45 AM 32.0 °F - 32.0 °F 100% 30.03 in 1.0 mi Calm Calm - N/A   Overcast
7:03 AM 32.0 °F 28.7 °F 32.0 °F 100% 30.04 in 0.5 mi WNW 3.5 mph - N/A Fog Fog
7:55 AM 33.8 °F - 33.8 °F 100% 30.06 in 0.5 mi Calm Calm - N/A Fog Fog
8:55 AM 33.8 °F - 33.8 °F 100% 30.07 in 0.5 mi Calm Calm - N/A   Overcast
9:45 AM 33.8 °F - 33.8 °F 100% 30.09 in 2.0 mi Calm Calm - N/A   Overcast
10:55 AM 35.6 °F - 35.6 °F 100% 30.10 in 4.0 mi Calm Calm - N/A   Overcast
11:45 AM 35.6 °F - 35.6 °F 100% 30.09 in 7.0 mi Calm Calm - N/A   Overcast
12:55 PM 37.4 °F 33.8 °F 37.4 °F 100% 30.08 in 10.0 mi SW 4.6 mph - N/A   Overcast
1:45 PM 37.4 °F 34.9 °F 37.4 °F 100% 30.07 in 10.0 mi SW 3.5 mph - N/A   Overcast
2:45 PM 37.4 °F 33.8 °F 35.6 °F 93% 30.08 in 10.0 mi SW 4.6 mph - N/A   Overcast
3:50 PM 37.4 °F 34.9 °F 35.6 °F 93% 30.09 in 10.0 mi West 3.5 mph - N/A   Overcast
4:50 PM 37.4 °F 34.9 °F 35.6 °F 93% 30.10 in 10.0 mi WSW 3.5 mph - N/A   Overcast
5:45 PM 37.4 °F - 35.6 °F 93% 30.11 in 10.0 mi Calm Calm - N/A   Overcast
7:45 PM 35.6 °F - 35.6 °F 100% 30.12 in 5.0 mi Calm Calm - N/A   Overcast
8:00 PM 35.6 °F 30.7 °F 35.6 °F 100% 30.12 in 5.0 mi South 5.8 mph - N/A   Overcast
8:45 PM 33.8 °F 28.6 °F 33.8 °F 100% 30.12 in 4.0 mi South 5.8 mph - N/A   Overcast
9:15 PM 33.8 °F 29.6 °F 33.8 °F 100% 30.12 in 4.0 mi South 4.6 mph - N/A   Overcast
9:35 PM 33.8 °F 29.6 °F 33.8 °F 100% 30.12 in 4.0 mi South 4.6 mph - N/A   Overcast
9:45 PM 33.8 °F 29.6 °F 33.8 °F 100% 30.12 in 5.0 mi South 4.6 mph - N/A   Overcast
9:55 PM 32.0 °F 27.5 °F 32.0 °F 100% 30.12 in 5.0 mi South 4.6 mph - N/A   Overcast
10:15 PM 32.0 °F 27.5 °F 32.0 °F 100% 30.12 in 4.0 mi South 4.6 mph - N/A   Overcast
10:35 PM 32.0 °F 28.7 °F 32.0 °F 100% 30.12 in 4.0 mi SSW 3.5 mph - N/A   Overcast
11:15 PM 32.0 °F 28.7 °F 32.0 °F 100% 30.11 in 4.0 mi South 3.5 mph - N/A   Overcast
11:35 PM 32.0 °F 27.5 °F 32.0 °F 100% 30.11 in 4.0 mi South 4.6 mph - N/A   Overcast
11:55 PM 32.0 °F 27.5 °F 32.0 °F 100% 30.11 in 4.0 mi South 4.6 mph - N/A   Overcast